Regional Weather Roundup
Issued by NWS

Home | Current Version | Previous Version | Text Only | Print | Product List | Glossary On
Versions: 1 2 3 4 5 6 7 8 9 10 11 12 13 14 15 16 17 18 19 20 21 22 23 24 25 26 27
000
ASUS45 KPSR 280310
RWRAZ

ARIZONA HOURLY REGIONAL WEATHER ROUNDUP
NATIONAL WEATHER SERVICE PHOENIX AZ
800 PM MST THU APR 27 2017

NOTE: FAIR INDICATES FEW OR NO CLOUDS BELOW 12,000 FEET WITH NO
SIGNIFICANT WEATHER AND/OR OBSTRUCTIONS TO VISIBILITY.

AZZ001>003-036-280400-
NORTHWEST ARIZONA

CITY           SKY/WX    TMP DP  RH WIND       PRES   REMARKS
BULLHEAD CITY  PTCLDY    86  27  11 CALM      29.53S
KINGMAN        PTCLDY    64  26  23 SW7       29.68F
$$

AZZ004>008-015-016-018-280400-
NORTH CENTRAL ARIZONA

CITY           SKY/WX    TMP DP  RH WIND       PRES   REMARKS
GRAND CANYON   PTCLDY    52  21  29 W8        29.79F
WILLIAMS       PTCLDY    54  21  28 W10       29.84S
PRESCOTT       PTCLDY    63  22  20 W10       29.77S
FLAGSTAFF      PTCLDY    53  19  26 W14G22    29.81S
PAYSON         PTCLDY    64  32  29 SW8G16    29.80R
PAGE           PTCLDY    65  17  15 N13G24    29.67R
$$

AZZ009>014-017-280400-
NORTHEAST ARIZONA

CITY           SKY/WX    TMP DP  RH WIND       PRES   REMARKS
WINSLOW        PTCLDY    64  18  17 W18G28    29.73R
SAINT JOHNS    MOCLDY    61  31  32 W23       29.74R
WINDOW ROCK    MOCLDY    54  19  25 W9        29.74R
SHOW LOW       MOCLDY    54  28  37 S12       29.83R
$$

AZZ540-542>544-546-548-280400-
GREATER PHOENIX AREA

CITY           SKY/WX    TMP DP  RH WIND       PRES   REMARKS
PHOENIX        PTCLDY    85  37  18 SW13      29.56R
BUCKEYE        CLEAR     77  32  19 W6        29.58R
GLENDALE       MOCLDY    86  30  13 SW6       29.58R
LUKE AFB       CLEAR     84  30  14 W8        29.56R
DEER VALLEY    CLEAR     82  28  14 W9        29.58R
SCOTTSDALE     CLEAR     84  31  14 W5        29.60R
MESA-FALCON    MOCLDY   N/A N/A N/A S6        29.59
MESA-GATEWAY   PTCLDY    81  39  22 SW7G18    29.61R
$$

AZZ539-553-280400-
SOUTHWEST MARICOPA COUNTY AND PINAL COUNTY

CITY           SKY/WX    TMP DP  RH WIND       PRES   REMARKS
CASA GRANDE    CLOUDY    83  36  18 W10       29.62R
GILA BEND      MOCLDY    85  33  15 W9        29.58R
$$

AZZ503-504-507>509-280400-
SOUTHEAST ARIZONA

CITY           SKY/WX    TMP DP  RH WIND       PRES   REMARKS
TUCSON         CLOUDY    82  35  18 W14       29.70R
DAVIS-MONTHAN  CLOUDY    81  35  19 W12       29.69R
RYAN FIELD     CLEAR     82  37  20 W16       29.68R
NOGALES        MOCLDY    74  36  25 SW8       29.78R
SIERRA VISTA   MOCLDY    70  33  25 W10       29.81R
DOUGLAS        PTCLDY    73  35  25 SW9       29.77R
SAFFORD        MOCLDY    76  35  22 NW13G24   29.64R
$$

AZZ532-280400-
SOUTHWEST ARIZONA

CITY           SKY/WX    TMP DP  RH WIND       PRES   REMARKS
YUMA           CLOUDY    84  48  28 S12       29.56S
$$

CAZ041-043-047-048-061-525>527-560>570-280400-
SOUTHERN CALIFORNIA

CITY           SKY/WX    TMP DP  RH WIND       PRES   REMARKS
DOWNTOWN L.A.  CLOUDY    80  32  17 NW8       29.71S
L.A. AIRPORT   CLOUDY    69  49  48 W12       29.74R
SAN DIEGO      MOCLDY    64  58  80 SW6       29.78F
BURBANK        CLOUDY    75  31  19 N25G37    29.76R
ONTARIO        CLOUDY    71  48  43 SW7       29.72S
RIVERSIDE      CLOUDY    72  47  40 NW6       29.72S
PALM SPRINGS   CLOUDY    84  44  24 NW16G31   29.58S
EL CENTRO NAS  MOCLDY    82  46  28 W18       29.57F
IMPERIAL       PTCLDY    80  51  36 SW15      29.55S
BLYTHE         CLEAR     87  32  14 CALM      29.54F
NEEDLES        MOCLDY    88  28  11 W10       29.55S
$$

NVZ020-UTZ003-280400-
SOUTHERN NEVADA-UTAH

CITY           SKY/WX    TMP DP  RH WIND       PRES   REMARKS
LAS VEGAS      PTCLDY    78  14   9 NW22G28   29.63R
SALT LAKE CITY MOCLDY    44  31  60 N13       29.84R
$$

NMZ009-TXZ055-280400-
NEW MEXICO-WEST TEXAS

CITY           SKY/WX    TMP DP  RH WIND       PRES   REMARKS
ALBUQUERQUE    MOCLDY    59  31  34 N16G23    29.65R
EL PASO        MOCLDY    82  21  10 W22G32    29.60R
$$


........................KEY........................
SKY/WX - SKY CONDITION/WEATHER
TMP    - TEMPERATURE IN FAHRENHEIT
DP     - DEW POINT IN FAHRENHEIT
RH     - RELATIVE HUMIDITY IN PERCENT
WIND   - DIRECTION AND SPEED IN MILES PER HOUR (MPH)
VRB    - VARIABLE WIND DIRECTION
PRES   - MEAN SEA LEVEL PRESSURE IN INCHES OF MERCURY
         F - FALLING PRESSURE   R - RISING PRESSURE
         S - STEADY PRESSURE
VSB    - VISIBILITY IN MILES
HX     - HEAT INDEX IN FAHRENHEIT
WCI    - WIND CHILL INDEX IN FAHRENHEIT
TC     - TEMPERATURE IN CELSIUS WHICH IS ALSO KNOWN AS
         TEMPERATURE IN CENTIGRADE
AFB    - AIR FORCE BASE
         LUKE AFB IS LUKE AIR FORCE BASE
         DAVIS-MONTHAN IS DAVIS-MONTHAN AIR FORCE BASE
NAS    - NAVAL AIR STATION
         EL CENTRO NAS IS EL CENTRO NAVAL AIR STATION
N/A    - NOT AVAILABLE





USA.gov is the U.S. government's official web portal to all federal, state and local government web resources and services.